Time,TemperatureF,DewpointF,PressureIn,WindDirection,WindDirectionDegrees,WindSpeedMPH,WindSpeedGustMPH,Humidity,HourlyPrecipIn,Conditions,Clouds,dailyrainin,SoftwareType,DateUTC
2013-11-24 00:00:00,41.7,23.9,30.16,ENE,67,0.0,0.0,49,0.00,RA,,0.00,WeatherDisplay:10.37,2013-11-24 05:00:00,
2013-11-24 00:01:00,41.7,23.4,30.16,East,93,0.0,0.5,48,0.00,RA,,0.00,WeatherDisplay:10.37,2013-11-24 05:01:00,
2013-11-24 00:06:00,41.5,23.7,30.16,NNW,335,0.0,0.3,49,0.00,RA,,0.00,WeatherDisplay:10.37,2013-11-24 05:06:00,
2013-11-24 00:11:00,41.3,24.5,30.16,NW,307,5.8,0.0,51,0.00,CLR,,0.00,WeatherDisplay:10.37,2013-11-24 05:11:00,
2013-11-24 00:16:00,41.2,23.9,30.17,WSW,240,1.0,1.0,50,0.00,CLR,,0.00,WeatherDisplay:10.37,2013-11-24 05:16:00,
2013-11-24 00:21:00,41.1,24.3,30.16,SW,221,0.0,0.0,51,0.00,CLR,,0.00,WeatherDisplay:10.37,2013-11-24 05:21:00,
2013-11-24 00:26:00,40.8,24.5,30.16,North,349,2.0,2.0,52,0.00,CLR,,0.00,WeatherDisplay:10.37,2013-11-24 05:26:00,
2013-11-24 00:31:00,40.7,24.0,30.17,NNE,30,2.3,2.3,51,0.00,CLR,,0.00,WeatherDisplay:10.37,2013-11-24 05:31:00,
2013-11-24 00:36:00,40.6,23.9,30.17,North,355,2.0,2.0,51,0.00,CLR,,0.00,WeatherDisplay:10.37,2013-11-24 05:36:00,
2013-11-24 00:41:00,40.6,24.3,30.17,NNW,346,3.5,3.5,52,0.00,CLR,,0.00,WeatherDisplay:10.37,2013-11-24 05:41:00,
2013-11-24 00:47:00,40.4,24.1,30.17,SE,143,0.0,0.0,52,0.00,CLR,,0.00,WeatherDisplay:10.37,2013-11-24 05:47:00,
2013-11-24 00:52:00,40.3,24.5,30.17,SW,227,0.0,0.0,53,0.00,CLR,,0.00,WeatherDisplay:10.37,2013-11-24 05:52:00,
2013-11-24 00:57:00,40.1,24.3,30.17,SE,135,1.1,1.1,53,0.00,CLR,,0.00,WeatherDisplay:10.37,2013-11-24 05:57:00,
2013-11-24 01:02:00,39.9,25.0,30.18,SE,129,3.5,3.5,55,0.00,CLR,,0.00,WeatherDisplay:10.37,2013-11-24 06:02:00,
2013-11-24 01:07:00,40.0,23.8,30.18,NNE,25,4.6,4.6,52,0.00,CLR,,0.00,WeatherDisplay:10.37,2013-11-24 06:07:00,
2013-11-24 01:12:00,40.3,24.1,30.18,WSW,255,3.5,3.5,52,0.00,CLR,,0.00,WeatherDisplay:10.37,2013-11-24 06:12:00,
2013-11-24 01:17:00,40.6,23.9,30.18,NW,326,4.6,4.6,51,0.00,CLR,,0.00,WeatherDisplay:10.37,2013-11-24 06:17:00,
2013-11-24 01:22:00,40.8,23.1,30.18,SSE,166,3.5,3.5,49,0.00,CLR,,0.00,WeatherDisplay:10.37,2013-11-24 06:22:00,
2013-11-24 01:27:00,40.8,22.6,30.18,SSE,158,3.5,3.5,48,0.00,CLR,,0.00,WeatherDisplay:10.37,2013-11-24 06:27:00,
2013-11-24 01:32:00,40.7,22.5,30.19,SSW,196,3.5,3.5,48,0.00,CLR,,0.00,WeatherDisplay:10.37,2013-11-24 06:32:00,
2013-11-24 01:37:00,40.6,23.4,30.19,West,276,2.3,2.3,50,0.00,CLR,,0.00,WeatherDisplay:10.37,2013-11-24 06:37:00,
2013-11-24 01:42:00,40.3,22.6,30.19,ESE,120,6.9,6.9,49,0.00,CLR,,0.00,WeatherDisplay:10.37,2013-11-24 06:42:00,
2013-11-24 01:47:00,40.2,23.0,30.19,WSW,240,2.3,2.3,50,0.00,CLR,,0.00,WeatherDisplay:10.37,2013-11-24 06:47:00,
2013-11-24 01:52:00,40.0,22.4,30.19,South,190,6.9,6.9,49,0.00,CLR,,0.00,WeatherDisplay:10.37,2013-11-24 06:52:00,
2013-11-24 01:57:00,39.9,21.8,30.20,NW,304,3.5,3.5,48,0.00,CLR,,0.00,WeatherDisplay:10.37,2013-11-24 06:57:00,
2013-11-24 02:02:00,39.7,21.6,30.20,WNW,297,7.0,7.0,48,0.00,CLR,,0.00,WeatherDisplay:10.37,2013-11-24 07:02:00,
2013-11-24 02:07:00,39.5,20.9,30.20,NNW,330,9.2,9.2,47,0.00,CLR,,0.00,WeatherDisplay:10.37,2013-11-24 07:07:00,
2013-11-24 02:12:00,39.3,21.2,30.20,North,6,9.2,9.2,48,0.00,CLR,,0.00,WeatherDisplay:10.37,2013-11-24 07:12:00,
2013-11-24 02:17:00,39.1,20.5,30.21,West,271,6.9,6.9,47,0.00,CLR,,0.00,WeatherDisplay:10.37,2013-11-24 07:17:00,
2013-11-24 02:22:00,38.8,20.8,30.21,WNW,300,1.1,1.1,48,0.00,CLR,,0.00,WeatherDisplay:10.37,2013-11-24 07:22:00,
2013-11-24 02:27:00,38.5,20.5,30.21,NE,34,4.6,4.6,48,0.00,CLR,,0.00,WeatherDisplay:10.37,2013-11-24 07:27:00,
2013-11-24 02:32:00,38.3,20.3,30.21,SW,214,2.3,2.3,48,0.00,CLR,,0.00,WeatherDisplay:10.37,2013-11-24 07:32:00,
2013-11-24 02:37:00,38.1,20.1,30.22,ENE,66,4.0,4.0,48,0.00,CLR,,0.00,WeatherDisplay:10.37,2013-11-24 07:37:00,
2013-11-24 02:42:00,37.8,19.3,30.21,SSW,213,9.2,9.2,47,0.00,CLR,,0.00,WeatherDisplay:10.37,2013-11-24 07:42:00,
2013-11-24 02:47:00,37.7,19.3,30.22,WSW,251,1.1,1.1,47,0.00,CLR,,0.00,WeatherDisplay:10.37,2013-11-24 07:47:00,
2013-11-24 02:52:00,37.5,19.1,30.22,ENE,61,4.0,4.0,47,0.00,CLR,,0.00,WeatherDisplay:10.37,2013-11-24 07:52:00,
2013-11-24 02:57:00,37.2,18.8,30.22,ESE,113,2.3,2.3,47,0.00,CLR,,0.00,WeatherDisplay:10.37,2013-11-24 07:57:00,
2013-11-24 03:02:00,36.9,18.5,30.22,NNE,33,2.3,2.3,47,0.00,CLR,,0.00,WeatherDisplay:10.37,2013-11-24 08:02:00,
2013-11-24 03:07:00,36.7,18.3,30.22,ENE,58,4.6,4.6,47,0.00,CLR,,0.00,WeatherDisplay:10.37,2013-11-24 08:07:00,
2013-11-24 03:12:00,36.5,18.2,30.22,West,271,3.5,3.5,47,0.00,CLR,,0.00,WeatherDisplay:10.37,2013-11-24 08:12:00,
2013-11-24 03:17:00,36.3,18.0,30.22,SSW,199,3.0,3.0,47,0.00,CLR,,0.00,WeatherDisplay:10.37,2013-11-24 08:17:00,
2013-11-24 03:22:00,36.0,17.7,30.22,ESE,103,9.2,9.2,47,0.00,CLR,,0.00,WeatherDisplay:10.37,2013-11-24 08:22:00,
2013-11-24 03:27:00,35.8,18.0,30.23,NE,40,13.0,13.0,48,0.00,CLR,,0.00,WeatherDisplay:10.37,2013-11-24 08:27:00,
2013-11-24 03:32:00,35.9,17.6,30.23,WNW,288,2.3,2.3,47,0.00,CLR,,0.00,WeatherDisplay:10.37,2013-11-24 08:32:00,
2013-11-24 03:37:00,35.8,17.0,30.22,NNW,329,4.0,4.0,46,0.00,CLR,,0.00,WeatherDisplay:10.37,2013-11-24 08:37:00,
2013-11-24 03:42:00,35.7,17.4,30.23,WNW,301,5.8,5.8,47,0.00,CLR,,0.00,WeatherDisplay:10.37,2013-11-24 08:42:00,
2013-11-24 03:47:00,35.6,17.8,30.23,WNW,297,5.8,5.8,48,0.00,CLR,,0.00,WeatherDisplay:10.37,2013-11-24 08:47:00,
2013-11-24 03:52:00,35.5,17.2,30.24,WNW,294,8.1,8.1,47,0.00,CLR,,0.00,WeatherDisplay:10.37,2013-11-24 08:52:00,
2013-11-24 03:57:00,35.4,17.1,30.25,WSW,253,3.5,3.5,47,0.00,CLR,,0.00,WeatherDisplay:10.37,2013-11-24 08:57:00,
2013-11-24 04:02:00,35.2,17.0,30.25,ENE,69,6.9,6.9,47,0.00,CLR,,0.00,WeatherDisplay:10.37,2013-11-24 09:02:00,
2013-11-24 04:07:00,35.0,17.7,30.25,NNW,335,1.0,1.0,49,0.00,CLR,,0.00,WeatherDisplay:10.37,2013-11-24 09:07:00,
2013-11-24 04:12:00,34.9,16.7,30.25,SW,225,4.6,4.6,47,0.00,CLR,,0.00,WeatherDisplay:10.37,2013-11-24 09:12:00,
2013-11-24 04:17:00,34.8,16.6,30.26,WNW,297,3.0,3.0,47,0.00,CLR,,0.00,WeatherDisplay:10.37,2013-11-24 09:17:00,
2013-11-24 04:22:00,34.7,17.0,30.26,West,263,3.5,3.5,48,0.00,CLR,,0.00,WeatherDisplay:10.37,2013-11-24 09:22:00,
2013-11-24 04:27:00,34.6,16.9,30.26,NW,318,2.3,2.3,48,0.00,CLR,,0.00,WeatherDisplay:10.37,2013-11-24 09:27:00,
2013-11-24 04:32:00,34.3,17.1,30.26,NW,326,1.1,1.4,49,0.00,CLR,,0.00,WeatherDisplay:10.37,2013-11-24 09:32:00,
2013-11-24 04:37:00,34.1,16.9,30.27,NNW,347,3.5,3.5,49,0.00,CLR,,0.00,WeatherDisplay:10.37,2013-11-24 09:37:00,
2013-11-24 04:42:00,33.9,16.7,30.27,South,191,5.8,5.8,49,0.00,CLR,,0.00,WeatherDisplay:10.37,2013-11-24 09:42:00,
2013-11-24 04:47:00,33.7,17.0,30.27,WSW,249,2.3,2.3,50,0.00,CLR,,0.00,WeatherDisplay:10.37,2013-11-24 09:47:00,
2013-11-24 04:52:00,33.5,16.8,30.28,South,176,1.1,1.1,50,0.00,CLR,,0.00,WeatherDisplay:10.37,2013-11-24 09:52:00,
2013-11-24 04:57:00,33.3,15.7,30.28,NNW,331,4.6,4.6,48,0.00,CLR,,0.00,WeatherDisplay:10.37,2013-11-24 09:57:00,
2013-11-24 05:02:00,33.3,15.7,30.28,NNW,345,3.5,3.5,48,0.00,CLR,,0.00,WeatherDisplay:10.37,2013-11-24 10:02:00,
2013-11-24 05:07:00,33.2,15.1,30.28,North,9,8.1,8.1,47,0.00,CLR,,0.00,WeatherDisplay:10.37,2013-11-24 10:07:00,
2013-11-24 05:12:00,33.1,15.0,30.29,WSW,239,5.8,5.8,47,0.00,CLR,,0.00,WeatherDisplay:10.37,2013-11-24 10:12:00,
2013-11-24 05:17:00,33.0,14.9,30.29,NE,41,3.5,3.5,47,0.00,CLR,,0.00,WeatherDisplay:10.37,2013-11-24 10:17:00,
2013-11-24 05:22:00,32.8,14.8,30.30,NW,315,3.5,3.8,47,0.00,CLR,,0.00,WeatherDisplay:10.37,2013-11-24 10:22:00,
2013-11-24 05:28:00,32.7,15.1,30.30,SSW,211,2.3,2.3,48,0.00,CLR,,0.00,WeatherDisplay:10.37,2013-11-24 10:28:00,
2013-11-24 05:33:00,32.5,15.0,30.30,East,90,4.0,4.0,48,0.00,CLR,,0.00,WeatherDisplay:10.37,2013-11-24 10:33:00,
2013-11-24 05:38:00,32.3,14.8,30.30,NNE,25,4.6,4.6,48,0.00,CLR,,0.00,WeatherDisplay:10.37,2013-11-24 10:38:00,
2013-11-24 05:43:00,32.2,14.7,30.31,NW,306,3.5,3.5,48,0.00,CLR,,0.00,WeatherDisplay:10.37,2013-11-24 10:43:00,
2013-11-24 05:48:00,32.1,14.1,30.31,SW,219,2.3,2.3,47,0.00,CLR,,0.00,WeatherDisplay:10.37,2013-11-24 10:48:00,
2013-11-24 05:53:00,32.0,14.5,30.31,SSW,193,2.3,2.3,48,0.00,CLR,,0.00,WeatherDisplay:10.37,2013-11-24 10:53:00,
2013-11-24 05:58:00,31.8,14.8,30.32,West,278,3.5,3.5,49,0.00,CLR,,0.00,WeatherDisplay:10.37,2013-11-24 10:58:00,
2013-11-24 06:03:00,31.7,14.7,30.32,SW,236,3.5,3.5,49,0.00,CLR,,0.00,WeatherDisplay:10.37,2013-11-24 11:03:00,
2013-11-24 06:08:00,31.6,14.6,30.33,SW,218,5.8,5.8,49,0.00,CLR,,0.00,WeatherDisplay:10.37,2013-11-24 11:08:00,
2013-11-24 06:13:00,31.6,14.6,30.33,SSW,202,2.3,2.3,49,0.00,CLR,,0.00,WeatherDisplay:10.37,2013-11-24 11:13:00,
2013-11-24 06:18:00,31.4,14.4,30.33,WSW,240,3.5,3.5,49,0.00,CLR,,0.00,WeatherDisplay:10.37,2013-11-24 11:18:00,
2013-11-24 06:23:00,31.3,14.3,30.33,NNW,340,1.1,1.1,49,0.00,CLR,,0.00,WeatherDisplay:10.37,2013-11-24 11:23:00,
2013-11-24 06:28:00,31.2,14.7,30.34,West,262,5.8,5.8,50,0.00,CLR,,0.00,WeatherDisplay:10.37,2013-11-24 11:28:00,
2013-11-24 06:33:00,31.1,14.6,30.34,NNW,340,3.5,3.5,50,0.00,CLR,,0.00,WeatherDisplay:10.37,2013-11-24 11:33:00,
2013-11-24 06:38:00,31.0,14.5,30.34,SSW,208,3.5,3.5,50,0.00,CLR,,0.00,WeatherDisplay:10.37,2013-11-24 11:38:00,
2013-11-24 06:43:00,30.8,14.3,30.34,NNE,20,3.5,3.5,50,0.00,CLR,,0.00,WeatherDisplay:10.37,2013-11-24 11:43:00,
2013-11-24 06:48:00,30.7,14.2,30.34,North,7,3.5,3.5,50,0.00,CLR,,0.00,WeatherDisplay:10.37,2013-11-24 11:48:00,
2013-11-24 06:53:00,30.6,14.6,30.35,WSW,239,4.6,4.6,51,0.00,CLR,,0.00,WeatherDisplay:10.37,2013-11-24 11:53:00,
2013-11-24 06:58:00,30.5,14.0,30.35,ENE,61,11.5,11.5,50,0.00,CLR,,0.00,WeatherDisplay:10.37,2013-11-24 11:58:00,
2013-11-24 07:03:00,30.5,14.0,30.35,NNE,20,2.3,2.3,50,0.00,CLR,,0.00,WeatherDisplay:10.37,2013-11-24 12:03:00,
2013-11-24 07:08:00,30.3,14.3,30.36,WSW,240,3.5,3.5,51,0.00,CLR,,0.00,WeatherDisplay:10.37,2013-11-24 12:08:00,
2013-11-24 07:13:00,30.2,14.2,30.36,NE,38,6.9,6.9,51,0.00,CLR,,0.00,WeatherDisplay:10.37,2013-11-24 12:13:00,
2013-11-24 07:18:00,30.2,14.7,30.36,SW,220,3.5,3.5,52,0.00,CLR,,0.00,WeatherDisplay:10.37,2013-11-24 12:18:00,
2013-11-24 07:23:00,30.2,14.7,30.37,NNW,338,4.6,4.6,52,0.00,CLR,,0.00,WeatherDisplay:10.37,2013-11-24 12:23:00,
2013-11-24 07:28:00,30.2,14.7,30.37,East,98,4.6,4.6,52,0.00,CLR,,0.00,WeatherDisplay:10.37,2013-11-24 12:28:00,
2013-11-24 07:33:00,30.3,14.8,30.38,SSE,165,1.1,1.1,52,0.00,CLR,,0.00,WeatherDisplay:10.37,2013-11-24 12:33:00,
2013-11-24 07:38:00,30.3,14.3,30.38,NE,43,7.0,7.0,51,0.00,CLR,,0.00,WeatherDisplay:10.37,2013-11-24 12:38:00,
2013-11-24 07:43:00,30.4,14.4,30.39,NW,306,3.5,3.5,51,0.00,CLR,,0.00,WeatherDisplay:10.37,2013-11-24 12:43:00,
2013-11-24 07:48:00,30.6,14.1,30.39,South,172,4.0,4.0,50,0.00,CLR,,0.00,WeatherDisplay:10.37,2013-11-24 12:48:00,
2013-11-24 07:53:00,30.7,14.2,30.39,South,191,1.1,1.1,50,0.00,CLR,,0.00,WeatherDisplay:10.37,2013-11-24 12:53:00,
2013-11-24 07:58:00,30.8,13.9,30.40,ENE,68,3.0,3.0,49,0.00,CLR,,0.00,WeatherDisplay:10.37,2013-11-24 12:58:00,
2013-11-24 08:03:00,31.0,13.6,30.40,SSW,195,3.5,3.5,48,0.00,CLR,,0.00,WeatherDisplay:10.37,2013-11-24 13:03:00,
2013-11-24 08:08:00,31.1,13.7,30.40,WSW,245,6.9,6.9,48,0.00,CLR,,0.00,WeatherDisplay:10.37,2013-11-24 13:08:00,
2013-11-24 08:13:00,31.4,13.9,30.41,North,359,2.3,2.3,48,0.00,CLR,,0.00,WeatherDisplay:10.37,2013-11-24 13:13:00,
2013-11-24 08:18:00,31.6,13.2,30.41,NNW,328,3.5,3.5,46,0.00,CLR,,0.00,WeatherDisplay:10.37,2013-11-24 13:18:00,
2013-11-24 08:23:00,31.7,12.8,30.41,SW,219,4.6,4.6,45,0.00,CLR,,0.00,WeatherDisplay:10.37,2013-11-24 13:23:00,
2013-11-24 08:28:00,31.9,12.4,30.41,NNE,16,5.8,5.8,44,0.00,CLR,,0.00,WeatherDisplay:10.37,2013-11-24 13:28:00,
2013-11-24 08:33:00,31.9,11.9,30.42,WSW,245,6.9,6.9,43,0.00,CLR,,0.00,WeatherDisplay:10.37,2013-11-24 13:33:00,
2013-11-24 08:38:00,32.1,12.1,30.42,ENE,75,4.0,4.0,43,0.00,CLR,,0.00,WeatherDisplay:10.37,2013-11-24 13:38:00,
2013-11-24 08:43:00,32.2,11.1,30.42,NW,326,2.3,2.3,41,0.00,CLR,,0.00,WeatherDisplay:10.37,2013-11-24 13:43:00,
2013-11-24 08:48:00,32.5,11.9,30.43,NNE,16,3.5,3.5,42,0.00,CLR,,0.00,WeatherDisplay:10.37,2013-11-24 13:48:00,
2013-11-24 08:53:00,32.8,11.1,30.43,West,266,2.3,2.3,40,0.00,CLR,,0.00,WeatherDisplay:10.37,2013-11-24 13:53:00,
2013-11-24 08:58:00,33.0,10.7,30.44,NE,45,6.0,6.0,39,0.00,CLR,,0.00,WeatherDisplay:10.37,2013-11-24 13:58:00,
2013-11-24 09:03:00,32.8,9.9,30.43,SSW,211,3.5,3.5,38,0.00,CLR,,0.00,WeatherDisplay:10.37,2013-11-24 14:03:00,
2013-11-24 09:08:00,32.8,9.9,30.43,East,83,4.0,4.0,38,0.00,CLR,,0.00,WeatherDisplay:10.37,2013-11-24 14:08:00,
2013-11-24 09:13:00,32.8,9.9,30.43,North,357,2.3,2.3,38,0.00,CLR,,0.00,WeatherDisplay:10.37,2013-11-24 14:13:00,
2013-11-24 09:18:00,32.9,9.4,30.44,SE,142,5.8,5.8,37,0.00,CLR,,0.00,WeatherDisplay:10.37,2013-11-24 14:18:00,
2013-11-24 09:23:00,33.1,9.6,30.43,North,356,3.5,3.5,37,0.00,CLR,,0.00,WeatherDisplay:10.37,2013-11-24 14:23:00,
2013-11-24 09:28:00,33.4,9.9,30.44,SE,125,4.0,4.0,37,0.00,CLR,,0.00,WeatherDisplay:10.37,2013-11-24 14:28:00,
2013-11-24 09:33:00,33.2,7.8,30.43,West,276,8.1,8.1,34,0.00,CLR,,0.00,WeatherDisplay:10.37,2013-11-24 14:33:00,
2013-11-24 09:38:00,33.0,7.6,30.44,NNE,32,5.8,5.8,34,0.00,CLR,,0.00,WeatherDisplay:10.37,2013-11-24 14:38:00,
2013-11-24 09:43:00,33.1,7.7,30.44,NNW,329,6.9,6.9,34,0.00,CLR,,0.00,WeatherDisplay:10.37,2013-11-24 14:43:00,
2013-11-24 09:48:00,33.4,8.0,30.44,ESE,113,10.4,10.4,34,0.00,CLR,,0.00,WeatherDisplay:10.37,2013-11-24 14:48:00,
2013-11-24 09:53:00,33.6,8.8,30.45,NNE,27,2.3,2.3,35,0.00,CLR,,0.00,WeatherDisplay:10.37,2013-11-24 14:53:00,
2013-11-24 09:58:00,33.7,8.3,30.45,North,359,3.5,3.5,34,0.00,CLR,,0.00,WeatherDisplay:10.37,2013-11-24 14:58:00,
2013-11-24 10:03:00,33.9,7.8,30.45,WNW,282,8.1,8.1,33,0.00,CLR,,0.00,WeatherDisplay:10.37,2013-11-24 15:03:00,
2013-11-24 10:08:00,33.8,7.0,30.45,North,7,12.7,12.7,32,0.00,CLR,,0.00,WeatherDisplay:10.37,2013-11-24 15:08:00,
2013-11-24 10:13:00,33.9,7.8,30.45,WNW,288,1.1,2.1,33,0.00,CLR,,0.00,WeatherDisplay:10.37,2013-11-24 15:13:00,
2013-11-24 10:18:00,34.1,7.3,30.46,NW,313,4.0,4.0,32,0.00,CLR,,0.00,WeatherDisplay:10.37,2013-11-24 15:18:00,
2013-11-24 10:23:00,34.1,6.6,30.45,SSW,204,11.5,11.5,31,0.00,CLR,,0.00,WeatherDisplay:10.37,2013-11-24 15:23:00,
2013-11-24 10:28:00,34.3,7.4,30.45,WNW,297,5.8,5.8,32,0.00,CLR,,0.00,WeatherDisplay:10.37,2013-11-24 15:28:00,
2013-11-24 10:33:00,34.5,7.6,30.45,ENE,57,6.0,6.0,32,0.00,CLR,,0.00,WeatherDisplay:10.37,2013-11-24 15:33:00,
2013-11-24 10:38:00,34.7,7.8,30.46,NE,47,4.6,4.6,32,0.00,CLR,,0.00,WeatherDisplay:10.37,2013-11-24 15:38:00,
2013-11-24 10:43:00,34.8,6.5,30.46,NNE,32,4.6,4.6,30,0.00,CLR,,0.00,WeatherDisplay:10.37,2013-11-24 15:43:00,
2013-11-24 10:48:00,34.8,7.2,30.46,WSW,256,5.8,5.8,31,0.00,CLR,,0.00,WeatherDisplay:10.37,2013-11-24 15:48:00,
2013-11-24 10:53:00,34.7,7.8,30.46,NW,326,3.0,3.0,32,0.00,CLR,,0.00,WeatherDisplay:10.37,2013-11-24 15:53:00,
2013-11-24 10:58:00,34.9,8.0,30.46,North,4,2.3,2.3,32,0.00,CLR,,0.00,WeatherDisplay:10.37,2013-11-24 15:58:00,
2013-11-24 11:03:00,35.2,8.2,30.46,North,6,4.6,4.6,32,0.00,CLR,,0.00,WeatherDisplay:10.37,2013-11-24 16:03:00,
2013-11-24 11:08:00,35.3,7.6,30.46,NW,318,3.5,3.5,31,0.00,CLR,,0.00,WeatherDisplay:10.37,2013-11-24 16:08:00,
2013-11-24 11:13:00,35.7,8.7,30.46,NNE,21,7.0,7.0,32,0.00,CLR,,0.00,WeatherDisplay:10.37,2013-11-24 16:13:00,
2013-11-24 11:18:00,35.3,7.6,30.45,NW,323,3.5,3.5,31,0.00,CLR,,0.00,WeatherDisplay:10.37,2013-11-24 16:18:00,
2013-11-24 11:23:00,35.3,6.9,30.45,NNE,30,5.8,5.8,30,0.00,CLR,,0.00,WeatherDisplay:10.37,2013-11-24 16:23:00,
2013-11-24 11:29:00,35.4,7.7,30.45,NNE,23,4.6,4.6,31,0.00,CLR,,0.00,WeatherDisplay:10.37,2013-11-24 16:29:00,
2013-11-24 11:34:00,35.6,8.6,30.45,WNW,296,10.4,10.4,32,0.00,CLR,,0.00,WeatherDisplay:10.37,2013-11-24 16:34:00,
2013-11-24 11:39:00,35.8,9.5,30.45,ENE,65,3.5,3.5,33,0.00,CLR,,0.00,WeatherDisplay:10.37,2013-11-24 16:39:00,
2013-11-24 11:44:00,36.1,9.0,30.44,NNE,14,8.1,8.1,32,0.00,CLR,,0.00,WeatherDisplay:10.37,2013-11-24 16:44:00,
2013-11-24 11:49:00,36.0,8.9,30.44,NE,41,4.0,4.0,32,0.00,CLR,,0.00,WeatherDisplay:10.37,2013-11-24 16:49:00,